COSMOS 2251 DEB, 33980

Orbit data source: Space-Track

COSMOS 2251 DEB, 33980 is space debris in LEO originally from a launch on Wed, 16 Jun 1993 UTC launched from the Plesetsk Missile And Space Complex (PKMTR). The debris from Iridium 33, an American commercial communications satellite, has been tracked extensively since its accidental collision with the defunct Russian satellite Cosmos 2251 in 2009. This event, occurring at high speed in low Earth orbit (LEO), generated thousands of pieces of space debris, significantly increasing the risk of further collisions. The Iridium 33 debris cloud has impacted space traffic management and orbital debris mitigation strategies, making it a subject of ongoing study in space situational awareness.

Loading next visibility...
Identifier
33980, 1993-036FP
Orbit
LEO
Country
Flag of CISCIS
Related business
Manufacturer
Unknown
Mission
Spacecraft
Bus & Motor
Unknown
Mass
Unknown
Launch date (UTC)
1993-06-16 (33 years ago)
Launch vehicle
Unknown
Launch site
Plesetsk Missile And Space Complex (PKMTR)
Object type
Payload
Rocket body
Debris
Shape & HBR
Unknown shape, 0.2 m
Radar Cross Section
Medium (>0.1 m² and <1 m²)

Expand to show TLE details & history
Last TLE update: 10 hours ago

TLE from 10 hours ago
0 COSMOS 2251 DEB
1 33980U 93036FP  26238.28058833  .00001387  00000-0  29363-3 0  9997
2 33980  74.0185 289.8237 0029083   3.5105  71.5255 14.59998645925376
Epoch: 2026-08-26T06:44Z
TLE epoch observation values (Epoch: 2026-08-26T06:44:02.831Z)
Latitude
68.54483°
Longitude
-99.27084°
Altitude
698.212 km
Speed
7.517 km/s
True Right ascension
22h 25m 06s
True Declination
68° 25' 35"
Sunlit
Object was in daylight at epoch
Visualization orbit readout
Latitude
Unknown
Longitude
Unknown
Altitude
Unknown
Speed
Unknown
Apparent Right ascension
Unknown
Apparent Declination
Unknown
Sunlit
N/A
Visualization observer readout
Local Sidereal Time
07:37:22
Azimuth
Unknown
Elevation
Unknown
Doppler factor
Unknown
Orbital elements
Apogee altitude
711.336 km
Perigee altitude
670.219 km
Semi-major axis
7,068.914 km
Eccentricity
0.00291
Inclination
74.0185°
RAAN
289.8237°
Arg. of periapsis
3.5105°
True anomaly
71.84195°
Mean anomaly
71.5255°
Eccentric anomaly
71.68369°
Mean motion
3.65186 °/min
Orbital period
98.58 mins
BSTAR
0.00029363
Loading maneuver chart data...
Computing Atmospheric mass density...

Documentation

Showing up to 5 results
|